Location: Bay Ridge
(40.6340°N, 74.0146°W)
Time: 13:54:40
(UTC+00:00)

Cosmos 1680 Rocket - Pass Details

Date: 15 November 2019
Orbit: 759 x 782 km, 74.1° (Epoch: 07 December)

Event Time Altitude Azimuth Distance (km) Brightness Sun altitude
Exits shadow 09:09:47 37° 14° (NNE) 1,199 4.5 -28.9°
Maximum altitude 09:11:33 53° 67° (ENE) 955 4.2 -28.6°
Drops below altitude 10° 09:16:43 10° 144° (SE) 2,328 6.4 -27.6°
Sets 09:19:09 0° 149° (SSE) 3,253 7.2 -27.2°
